Weather History for Cape Girardeau, MO

Change the Weather History Date:

Thursday, January 16, 2014

  Actual Average Record
Temperature  
Mean Temperature 37 °F 33 °F  
Max Temperature 46 °F 42 °F 63 °F (1990)
Min Temperature 27 °F 24 °F -12 °F (1982)
Degree Days  
Heating Degree Days 28 32  
Month to date heating degree days 552 512  
Since 1 July heating degree days 2419 2263  
Cooling Degree Days 0 0  
Month to date cooling degree days 0 0  
Year to date cooling degree days 0 0  
Moisture  
Dew Point 25 °F    
Average Humidity 69    
Maximum Humidity 82    
Minimum Humidity 55    
Precipitation  
Precipitation T in 0.10 in 1.10 in (1978)
Month to date precipitation 1.99 1.78  
Year to date precipitation 1.99 1.78  
Sea Level Pressure  
Sea Level Pressure 29.88 in    
Wind  
Wind Speed 9 mph (SSW)    
Max Wind Speed 20 mph    
Max Gust Speed 26 mph    
Visibility 10 miles    
Events Snow    
T = Trace of Precipitation, MM = Missing Value Source: NWS Daily Summary

Daily Weather History Graph

Daily Weather History Graph

Search for Another Location

Airport:

Trip Planner

Search our weather history database for the weather conditions in past years. The results will help you decide how hot, cold, wet, or windy it might be!

Date:

Astronomy

Jan. 16, 2014 Rise Set
Actual Time 7:10 AM CST 5:05 PM CST
Civil Twilight 6:42 AM CST 5:34 PM CST
Nautical Twilight 6:10 AM CST 6:06 PM CST
Astronomical Twilight 5:39 AM CST 6:37 PM CST
Moon 5:55 PM CST (1/16) 7:06 AM CST (1/16)
Length of Visible Light 10h 51m
Length of Day
9h 54m
Full, 100% of the Moon is Illuminated
Jan 16
Full
Jan 23
Last Quarter
Jan 30
New
Feb 6
First Quarter
Feb 14
Full

Hourly Weather History & Observations

Time (CST) Temp. Windchill Dew Point Humidity Pressure Visibility Wind Dir Wind Speed Gust Speed Precip Events Conditions
12:53 AM 27.0 °F 17.3 °F 19.0 °F 72% 30.04 in 10.0 mi South 10.4 mph - N/A   Overcast
1:53 AM 28.0 °F 18.1 °F 19.9 °F 72% 30.04 in 10.0 mi South 11.5 mph - N/A   Overcast
2:53 AM 28.9 °F 19.8 °F 19.9 °F 69% 30.01 in 10.0 mi South 10.4 mph - N/A   Overcast
3:53 AM 28.9 °F 18.6 °F 19.0 °F 67% 29.98 in 10.0 mi South 12.7 mph - N/A   Overcast
4:53 AM 30.0 °F 20.5 °F 19.0 °F 64% 29.96 in 10.0 mi South 11.5 mph - N/A   Overcast
5:53 AM 30.0 °F 21.1 °F 19.0 °F 64% 29.93 in 10.0 mi South 10.4 mph - N/A   Overcast
6:53 AM 30.0 °F 20.5 °F 19.0 °F 64% 29.92 in 10.0 mi South 11.5 mph 17.3 mph N/A   Overcast
7:53 AM 30.9 °F 22.2 °F 19.9 °F 64% 29.91 in 10.0 mi SSW 10.4 mph 20.7 mph N/A   Overcast
8:53 AM 32.0 °F 23.0 °F 21.0 °F 64% 29.89 in 9.0 mi SSW 11.5 mph - 0.00 in Snow Light Snow
9:53 AM 34.0 °F 24.6 °F 21.9 °F 61% 29.88 in 10.0 mi SSW 13.8 mph - 0.00 in   Clear
10:53 AM 37.9 °F 30.5 °F 25.0 °F 60% 29.85 in 10.0 mi SW 11.5 mph - N/A   Partly Cloudy
11:53 AM 41.0 °F 33.1 °F 27.0 °F 57% 29.79 in 10.0 mi SSW 15.0 mph - N/A   Clear
12:53 PM 43.0 °F 36.0 °F 28.9 °F 58% 29.77 in 10.0 mi SW 13.8 mph - N/A   Partly Cloudy
1:53 PM 44.1 °F 38.6 °F 30.0 °F 58% 29.76 in 10.0 mi SSW 10.4 mph - N/A   Overcast
2:53 PM 45.0 °F 39.3 °F 30.9 °F 58% 29.76 in 10.0 mi SSW 11.5 mph - N/A   Scattered Clouds
3:53 PM 44.1 °F 40.8 °F 32.0 °F 63% 29.80 in 10.0 mi SW 5.8 mph - N/A   Overcast
4:53 PM 41.0 °F - 34.0 °F 76% 29.83 in 10.0 mi Calm Calm - 0.00 in   Overcast
5:53 PM 39.9 °F - 34.0 °F 79% 29.85 in 10.0 mi Calm Calm - N/A   Overcast
6:53 PM 37.0 °F 34.5 °F 30.9 °F 79% 29.85 in 10.0 mi SSW 3.5 mph - N/A   Overcast
7:53 PM 34.0 °F 28.8 °F 28.9 °F 82% 29.87 in 10.0 mi West 5.8 mph - N/A   Mostly Cloudy
8:53 PM 35.1 °F 30.1 °F 27.0 °F 72% 29.86 in 10.0 mi WSW 5.8 mph - N/A   Scattered Clouds
9:53 PM 34.0 °F 28.0 °F 25.0 °F 70% 29.86 in 10.0 mi WSW 6.9 mph - N/A   Clear
10:53 PM 33.1 °F 24.4 °F 25.0 °F 72% 29.85 in 10.0 mi WSW 11.5 mph 20.7 mph N/A   Mostly Cloudy
11:53 PM 36.0 °F 29.6 °F 27.0 °F 70% 29.85 in 10.0 mi West 8.1 mph - N/A   Overcast